FW9665 Weather Reports


time (UTC)temp
C
wind
direction
speed
KPH
gust
KPH
rain 1hr
cm
rain 24hr
cm
rain mn
cm
humidity
%
barometer
mb
20260507082057 15 158 1.6 6.4 0.00 0.15 0.15 84 1012.6
20260507081516 14 135 3.2 4.8 0.00 0.15 0.15 83 1012.6
20260507081016 13 113 3.2 9.7 0.00 0.15 0.15 84 1012.5
20260507080517 13 113 3.2 6.4 0.00 0.15 0.15 84 1012.5
20260507080016 13 135 3.2 8.0 0.00 0.15 0.15 86 1012.5
20260507075516 13 113 1.6 9.7 0.00 0.15 0.15 87 1012.6
20260507075017 13 113 1.6 4.8 0.00 0.15 0.15 88 1012.7
20260507074536 13 113 1.6 4.8 0.00 0.15 0.15 88 1012.6
20260507074036 12 0.0 3.2 0.00 0.15 0.15 86 1012.4
20260507073517 13 0.0 0.0 0.00 0.15 0.15 87 1012.5
20260507073016 13 0.0 1.6 0.00 0.15 0.15 87 1012.5
20260507072517 13 0.0 1.6 0.00 0.15 0.15 88 1012.6
20260507072016 13 0.0 0.0 0.00 0.15 0.15 88 1012.5
20260507071517 13 0.0 1.6 0.00 0.15 0.15 88 1012.5
20260507071017 13 0.0 1.6 0.03 0.15 0.15 88 1012.4
20260507070516 12 0.0 0.0 0.03 0.15 0.15 88 1012.3
20260507070016 12 0.0 0.0 0.03 0.15 0.15 88 1012.2
20260507065516 12 0.0 0.0 0.03 0.15 0.15 88 1012.2
20260507065016 12 0.0 0.0 0.03 0.15 0.15 88 1012.2
20260507064516 12 0.0 0.0 0.03 0.15 0.15 88 1012.2
20260507064016 12 0.0 0.0 0.03 0.15 0.15 88 1012.2
20260507063516 12 0.0 0.0 0.03 0.15 0.15 88 1012.1
20260507063016 12 0.0 0.0 0.03 0.15 0.15 88 1012.0
20260507062536 11 0.0 0.0 0.03 0.15 0.15 88 1012.1
20260507062016 11 0.0 0.0 0.03 0.15 0.15 88 1012.0
20260507061517 11 0.0 0.0 0.05 0.15 0.15 88 1012.0
20260507061016 11 0.0 0.0 0.03 0.13 0.13 88 1012.0
20260507060536 11 0.0 0.0 0.08 0.13 0.13 87 1011.9
20260507060016 11 0.0 0.0 0.08 0.13 0.13 87 1011.9
20260507055536 10 0.0 0.0 0.10 0.13 0.13 87 1012.0
20260507055016 10 0.0 3.2 0.10 0.13 0.13 87 1011.9
20260507054536 10 0.0 3.2 0.13 0.13 0.13 86 1012.0
20260507054016 10 0.0 0.0 0.13 0.13 0.13 86 1011.9
20260507053516 10 0.0 0.0 0.13 0.13 0.13 86 1011.9
20260507053016 10 0.0 0.0 0.13 0.15 0.13 86 1011.9
20260507052516 10 315 1.6 3.2 0.13 0.15 0.13 86 1011.9
20260507052016 10 0.0 0.0 0.13 0.15 0.13 85 1011.8
20260507051517 10 0.0 0.0 0.10 0.13 0.10 85 1011.8
20260507051036 10 0.0 0.0 0.10 0.13 0.10 85 1011.8
20260507050516 10 0.0 1.6 0.05 0.08 0.05 85 1011.7
20260507050016 11 0.0 1.6 0.05 0.08 0.05 85 1011.6
20260507045516 11 0.0 0.0 0.03 0.05 0.03 85 1011.7
20260507045016 11 0.0 0.0 0.03 0.05 0.03 85 1011.7
20260507044536 11 0.0 0.0 0.00 0.03 0.00 85 1011.5
20260507044036 11 0.0 0.0 0.00 0.03 0.00 85 1011.5
20260507043516 11 0.0 0.0 0.00 0.03 0.00 85 1011.5
20260507043036 11 0.0 0.0 0.00 0.03 0.00 85 1011.5
20260507042516 11 0.0 1.6 0.00 0.03 0.00 85 1011.5
20260507042036 11 0.0 0.0 0.00 0.03 0.00 85 1011.5
20260507041516 11 0.0 0.0 0.00 0.03 0.00 85 1011.4
20260507041036 11 0.0 0.0 0.00 0.03 0.00 85 1011.4
20260507040516 11 0.0 1.6 0.00 0.03 0.00 85 1011.4
20260507040016 11 0.0 0.0 0.00 0.03 0.00 85 1011.3
20260507035516 11 0.0 0.0 0.00 0.03 0.00 85 1011.1
20260507035016 11 0.0 1.6 0.00 0.03 0.00 85 1011.0
20260507034516 11 0.0 0.0 0.00 0.03 0.00 85 1011.1
20260507034016 11 0.0 0.0 0.00 0.03 0.00 86 1011.2
20260507033516 11 0.0 0.0 0.00 0.03 0.00 86 1011.2
20260507033016 11 0.0 0.0 0.00 0.03 0.00 86 1011.2
20260507032516 11 0.0 0.0 0.00 0.03 0.00 86 1011.1
20260507032016 11 0.0 0.0 0.00 0.03 0.00 86 1011.2
20260507031516 12 0.0 0.0 0.00 0.03 0.00 86 1011.2
20260507031016 12 0.0 4.8 0.00 0.03 0.00 86 1011.2
20260507030516 12 158 1.6 4.8 0.00 0.03 0.00 86 1011.3
20260507030016 12 0.0 0.0 0.00 0.03 0.00 86 1011.3
20260507025536 12 0.0 0.0 0.00 0.03 0.00 86 1011.3
20260507025016 12 0.0 0.0 0.00 0.03 0.00 87 1011.3
20260507024516 12 0.0 3.2 0.00 0.03 0.00 87 1011.2
20260507024036 12 180 1.6 3.2 0.00 0.03 0.00 87 1011.2
20260507023536 12 0.0 1.6 0.00 0.03 0.00 87 1011.1
20260507023016 13 0.0 3.2 0.00 0.03 0.00 87 1011.2
20260507022516 13 135 1.6 4.8 0.00 0.03 0.00 87 1011.3
20260507022036 13 0.0 4.8 0.00 0.03 0.00 87 1011.4
20260507021516 13 0.0 0.0 0.00 0.03 0.00 87 1011.4
20260507021016 13 45 1.6 6.4 0.00 0.03 0.00 87 1011.3
20260507020516 13 45 1.6 4.8 0.00 0.03 0.00 86 1011.3
20260507020016 13 0.0 1.6 0.00 0.03 0.00 86 1011.4
20260507015516 13 45 1.6 6.4 0.00 0.03 0.00 86 1011.3
20260507015016 13 0.0 3.2 0.00 0.03 0.00 86 1011.3
20260507014516 13 45 1.6 6.4 0.00 0.03 0.00 85 1011.2
20260507014016 13 338 1.6 4.8 0.00 0.03 0.00 85 1011.3
20260507013516 13 23 1.6 4.8 0.00 0.03 0.00 85 1011.1
20260507013016 13 0.0 3.2 0.00 0.03 0.00 84 1011.2
20260507012516 13 0.0 3.2 0.00 0.03 0.00 84 1011.2
20260507012016 13 338 1.6 4.8 0.00 0.03 0.00 84 1011.2
20260507011516 13 45 1.6 4.8 0.00 0.03 0.00 83 1011.3
20260507011016 13 0.0 3.2 0.00 0.03 0.00 83 1011.2
20260507010516 13 158 1.6 3.2 0.00 0.03 0.00 83 1011.1
20260507010016 13 0.0 0.0 0.00 0.03 0.00 82 1011.1
20260507005516 13 0.0 1.6 0.00 0.03 0.00 83 1011.0
20260507005016 13 0.0 1.6 0.00 0.03 0.00 82 1011.1
20260507004516 13 0.0 1.6 0.00 0.03 0.00 82 1011.1
20260507004036 13 0.0 1.6 0.00 0.03 0.00 82 1011.0
20260507003516 13 0.0 3.2 0.00 0.03 0.00 82 1011.1
20260507003016 13 0.0 4.8 0.00 0.03 0.00 82 1011.1
20260507002536 13 315 1.6 8.0 0.00 0.03 0.00 81 1010.9
20260507002016 13 315 4.8 12.9 0.00 0.03 0.00 81 1010.9
20260507001516 13 0 3.2 6.4 0.00 0.03 0.00 81 1011.0
20260507001015 13 338 3.2 8.0 0.00 0.03 0.00 81 1011.0
20260507000516 13 338 8.0 16.1 0.00 0.03 0.00 80 1011.1
20260507000015 13 338 11.3 17.7 0.00 0.03 0.00 80 1011.2
20260506235515 14 338 6.4 12.9 0.00 0.03 0.00 80 1011.1
20260506235016 14 315 6.4 14.5 0.00 0.03 0.00 79 1011.1
20260506234536 14 0.0 4.8 0.00 0.03 0.00 79 1011.2
20260506234015 14 0.0 3.2 0.00 0.03 0.00 79 1011.3
20260506233536 14 113 1.6 6.4 0.00 0.03 0.00 78 1011.2
20260506233016 14 315 3.2 6.4 0.00 0.03 0.00 77 1011.3
20260506232516 14 315 4.8 11.3 0.00 0.03 0.00 77 1011.2
20260506232016 14 315 11.3 17.7 0.00 0.03 0.00 78 1011.2
20260506231515 14 315 9.7 17.7 0.00 0.03 0.00 79 1011.2
20260506231016 14 338 4.8 11.3 0.00 0.03 0.00 79 1011.3
20260506230515 14 338 6.4 17.7 0.00 0.03 0.00 79 1011.2
20260506230016 14 113 1.6 4.8 0.00 0.03 0.00 79 1011.4
20260506225515 14 0.0 4.8 0.00 0.03 0.00 79 1011.2
20260506225016 14 90 1.6 3.2 0.00 0.03 0.00 79 1011.3
20260506224536 15 135 3.2 8.0 0.00 0.03 0.00 79 1011.3
20260506224015 15 135 1.6 8.0 0.00 0.03 0.00 79 1011.4
20260506223516 15 113 1.6 8.0 0.00 0.03 0.00 78 1011.4
20260506223015 15 338 3.2 8.0 0.00 0.03 0.00 77 1011.3
20260506222516 14 338 4.8 9.7 0.00 0.03 0.00 77 1011.3
20260506222015 14 338 4.8 9.7 0.00 0.03 0.00 77 1011.4
20260506221516 15 338 6.4 12.9 0.00 0.03 0.00 77 1011.3
20260506221015 15 338 4.8 9.7 0.00 0.03 0.00 77 1011.4
20260506220515 15 338 6.4 9.7 0.00 0.03 0.00 77 1011.4
20260506220015 15 315 11.3 16.1 0.00 0.03 0.03 77 1011.4
20260506215516 15 315 11.3 20.9 0.00 0.03 0.03 77 1011.4
20260506215016 15 315 11.3 25.7 0.00 0.03 0.03 77 1011.5
20260506214516 15 293 11.3 20.9 0.00 0.03 0.03 78 1011.3
20260506214016 14 315 16.1 24.1 0.00 0.03 0.03 78 1011.2
20260506213516 14 315 11.3 17.7 0.00 0.03 0.03 78 1011.4
20260506213016 15 0 1.6 8.0 0.00 0.03 0.03 79 1011.5
20260506212516 15 90 1.6 8.0 0.00 0.03 0.03 79 1011.3
20260506212016 15 113 3.2 6.4 0.00 0.03 0.03 78 1011.3
20260506211516 15 338 3.2 9.7 0.00 0.03 0.03 77 1011.2
20260506211016 15 23 1.6 8.0 0.00 0.03 0.03 77 1011.3
20260506210516 15 293 1.6 4.8 0.00 0.03 0.03 77 1011.3
20260506210016 15 315 9.7 19.3 0.00 0.03 0.03 77 1011.4
20260506205516 15 315 16.1 24.1 0.00 0.03 0.03 77 1011.1
20260506205016 15 315 19.3 25.7 0.00 0.03 0.03 77 1011.1
20260506204516 15 338 19.3 29.0 0.00 0.03 0.03 77 1011.2
20260506204016 15 338 17.7 32.2 0.00 0.03 0.03 77 1011.2
20260506203516 15 338 12.9 25.7 0.00 0.03 0.03 76 1011.1
20260506203016 15 338 9.7 17.7 0.00 0.03 0.03 76 1011.2
20260506202516 15 338 3.2 8.0 0.00 0.03 0.03 76 1011.0
20260506202036 15 338 4.8 9.7 0.00 0.03 0.03 75 1011.0
20260506201516 15 45 3.2 12.9 0.00 0.03 0.03 74 1011.0
20260506201036 15 338 3.2 8.0 0.00 0.03 0.03 72 1010.9
20260506200516 15 315 1.6 8.0 0.00 0.03 0.03 72 1010.9
20260506200016 15 113 3.2 8.0 0.00 0.03 0.03 72 1010.8
20260506195516 16 338 3.2 11.3 0.00 0.03 0.03 70 1010.7
20260506195036 16 338 3.2 8.0 0.00 0.03 0.03 69 1010.7
20260506194516 15 315 9.7 17.7 0.00 0.03 0.03 67 1010.5
20260506194016 15 338 14.5 25.7 0.00 0.03 0.03 67 1010.4
20260506193516 15 315 9.7 17.7 0.00 0.03 0.03 68 1010.2
20260506193016 15 315 16.1 29.0 0.00 0.03 0.03 68 1010.3
20260506192516 15 315 8.0 14.5 0.00 0.03 0.03 69 1010.5
20260506192016 15 315 6.4 12.9 0.00 0.03 0.03 69 1010.5
20260506191535 15 315 11.3 19.3 0.00 0.03 0.03 69 1010.3
20260506191015 15 315 12.9 20.9 0.00 0.03 0.03 70 1010.2
20260506190516 15 315 11.3 19.3 0.00 0.03 0.03 70 1010.2
20260506190055 15 315 9.7 19.3 0.00 0.03 0.03 71 1010.2
20260506185515 15 315 11.3 19.3 0.00 0.03 0.03 71 1010.0
20260506185016 15 315 9.7 16.1 0.00 0.03 0.03 71 1010.0
20260506184516 15 315 12.9 19.3 0.00 0.03 0.03 70 1010.0
20260506184016 15 315 12.9 17.7 0.00 0.03 0.03 70 1009.9
20260506183516 15 315 14.5 20.9 0.00 0.03 0.03 69 1009.9
20260506183016 15 315 12.9 20.9 0.00 0.03 0.03 69 1009.8
20260506182516 16 315 8.0 19.3 0.00 0.03 0.03 70 1009.8
20260506182015 16 315 3.2 6.4 0.00 0.03 0.03 70 1009.9
20260506181515 16 315 6.4 14.5 0.00 0.03 0.03 69 1009.8
20260506181015 16 315 8.0 14.5 0.00 0.03 0.03 69 1009.9
20260506180516 16 315 4.8 9.7 0.00 0.03 0.03 69 1009.9
20260506180016 16 315 3.2 6.4 0.00 0.03 0.03 68 1009.9
20260506175515 16 293 4.8 11.3 0.00 0.03 0.03 68 1009.8
20260506175016 16 315 6.4 12.9 0.00 0.03 0.03 68 1009.7
20260506174536 16 315 11.3 19.3 0.00 0.03 0.03 68 1009.7
20260506174036 16 338 8.0 19.3 0.00 0.03 0.03 68 1009.7
20260506173516 16 315 4.8 9.7 0.00 0.03 0.03 68 1009.6
20260506173015 16 315 8.0 12.9 0.00 0.03 0.03 68 1009.6
20260506172515 16 315 11.3 19.3 0.00 0.03 0.03 68 1009.5
20260506172015 16 315 17.7 25.7 0.00 0.03 0.03 67 1009.5
20260506171535 16 315 14.5 22.5 0.00 0.03 0.03 67 1009.7
20260506171015 16 315 14.5 24.1 0.00 0.03 0.03 66 1009.7
20260506170516 17 315 12.9 22.5 0.00 0.03 0.03 66 1009.7
20260506170015 17 315 8.0 16.1 0.00 0.03 0.03 66 1009.7
20260506165516 17 315 14.5 25.7 0.00 0.03 0.03 66 1009.8
20260506165016 17 315 8.0 19.3 0.00 0.03 0.03 65 1009.7
20260506164515 17 315 6.4 14.5 0.00 0.03 0.03 66 1009.8
20260506164016 17 315 1.6 6.4 0.00 0.03 0.03 67 1009.8
20260506163516 17 315 11.3 22.5 0.00 0.03 0.03 65 1009.7
20260506163015 17 315 11.3 20.9 0.00 0.03 0.03 65 1009.8
20260506162535 18 315 11.3 22.5 0.00 0.03 0.03 66 1009.8
20260506162015 18 315 9.7 22.5 0.00 0.03 0.03 66 1009.8
20260506161515 18 338 6.4 14.5 0.00 0.03 0.03 65 1009.8
20260506161015 18 315 14.5 27.4 0.00 0.03 0.03 63 1009.7
20260506160515 18 315 12.9 27.4 0.00 0.03 0.03 64 1009.9
20260506160035 18 338 9.7 20.9 0.00 0.03 0.03 64 1009.9
20260506155515 18 338 6.4 12.9 0.00 0.03 0.03 65 1010.0
20260506155036 18 338 11.3 22.5 0.00 0.03 0.03 62 1009.9
20260506154518 19 338 8.0 17.7 0.00 0.03 0.03 62 1009.9
20260506154017 18 315 4.8 12.9 0.00 0.03 0.03 60 1009.9
20260506153517 19 315 8.0 16.1 0.00 0.03 0.03 61 1009.9
20260506153017 18 338 3.2 9.7 0.00 0.03 0.03 63 1009.9
20260506152517 18 315 9.7 17.7 0.00 0.03 0.03 61 1009.9
20260506152017 18 338 12.9 24.1 0.00 0.03 0.03 61 1009.8
20260506151537 18 338 11.3 22.5 0.00 0.03 0.03 62 1009.7
20260506151016 18 315 16.1 29.0 0.00 0.03 0.03 62 1009.7
20260506150517 18 315 12.9 22.5 0.00 0.03 0.03 63 1009.8
20260506150017 18 338 17.7 30.6 0.00 0.03 0.03 63 1009.8
20260506145517 18 315 19.3 30.6 0.00 0.03 0.03 62 1009.8
20260506145016 19 338 16.1 30.6 0.00 0.03 0.03 61 1009.7
20260506144516 19 338 12.9 20.9 0.00 0.03 0.03 61 1009.9
20260506144017 19 338 9.7 22.5 0.00 0.03 0.03 62 1009.8
20260506143517 18 315 16.1 25.7 0.00 0.03 0.03 62 1009.7
20260506143017 19 315 14.5 27.4 0.00 0.03 0.03 61 1009.7
20260506142517 18 338 11.3 20.9 0.00 0.03 0.03 63 1009.7
20260506142017 18 338 20.9 41.8 0.00 0.03 0.03 62 1009.6
20260506141517 18 338 22.5 41.8 0.00 0.03 0.03 61 1009.6
20260506141017 19 338 16.1 29.0 0.00 0.03 0.03 60 1009.8
20260506140517 19 338 19.3 38.6 0.00 0.03 0.03 60 1009.7
20260506140017 20 338 9.7 19.3 0.00 0.03 0.03 60 1009.6
20260506135538 20 338 12.9 30.6 0.00 0.03 0.03 59 1009.6
20260506135017 20 338 9.7 32.2 0.00 0.03 0.03 58 1009.8
20260506134517 20 338 8.0 19.3 0.00 0.03 0.03 60 1009.8
20260506134015 20 315 8.0 20.9 0.00 0.03 0.03 60 1009.7
20260506133537 20 338 8.0 16.1 0.00 0.03 0.03 60 1009.7
20260506133017 20 338 8.0 22.5 0.00 0.03 0.03 61 1009.8
20260506132517 20 338 9.7 24.1 0.00 0.03 0.03 60 1009.9
20260506132017 20 338 11.3 25.7 0.00 0.03 0.03 59 1010.0
20260506131517 21 338 6.4 17.7 0.00 0.03 0.03 59 1010.1
20260506131017 20 338 9.7 20.9 0.00 0.03 0.03 60 1010.1
20260506130517 21 338 6.4 17.7 0.00 0.03 0.03 59 1010.1
20260506130017 20 315 6.4 19.3 0.00 0.03 0.03 60 1010.2
20260506125517 20 315 3.2 16.1 0.00 0.03 0.03 62 1010.4
20260506125017 20 315 1.6 8.0 0.00 0.03 0.03 62 1010.4
20260506124557 20 315 8.0 17.7 0.00 0.03 0.03 63 1010.4
20260506124017 20 338 8.0 20.9 0.00 0.03 0.03 62 1010.5
20260506123517 20 338 3.2 11.3 0.00 0.03 0.03 65 1010.7
20260506123017 20 0 1.6 4.8 0.00 0.03 0.03 68 1010.8
20260506122517 19 338 4.8 16.1 0.00 0.03 0.03 67 1010.7
20260506122017 19 338 3.2 8.0 0.00 0.03 0.03 71 1010.8
20260506121517 18 315 4.8 14.5 0.00 0.03 0.03 71 1010.8
20260506121017 18 338 8.0 20.9 0.00 0.03 0.03 68 1010.6
20260506120517 18 45 1.6 4.8 0.00 0.03 0.03 70 1010.7
20260506120017 18 315 6.4 12.9 0.00 0.03 0.03 68 1010.6
20260506115517 18 315 6.4 17.7 0.00 0.03 0.03 68 1010.6
20260506115017 18 315 4.8 12.9 0.00 0.03 0.03 68 1010.7
20260506114517 18 315 8.0 19.3 0.00 0.03 0.03 68 1010.6
20260506114017 18 315 8.0 19.3 0.00 0.03 0.03 68 1010.5
20260506113517 18 315 4.8 12.9 0.00 0.03 0.03 71 1010.5
20260506113017 18 338 3.2 8.0 0.00 0.03 0.03 71 1010.3
20260506112517 18 315 9.7 22.5 0.00 0.03 0.03 72 1010.3
20260506112017 17 315 9.7 17.7 0.00 0.03 0.03 73 1010.2
20260506111517 17 315 17.7 29.0 0.00 0.03 0.03 71 1010.3
20260506111017 17 315 16.1 37.0 0.00 0.03 0.03 69 1010.1
20260506110517 18 315 14.5 29.0 0.00 0.03 0.03 69 1010.2
20260506110017 18 315 14.5 27.4 0.00 0.03 0.03 68 1010.2
20260506105537 18 315 9.7 22.5 0.00 0.03 0.03 69 1010.1
20260506105017 18 315 11.3 22.5 0.00 0.03 0.03 69 1010.2
20260506104517 17 315 12.9 24.1 0.00 0.03 0.03 71 1010.1
20260506104017 17 315 9.7 25.7 0.00 0.03 0.03 72 1010.1
20260506103537 17 315 14.5 30.6 0.00 0.03 0.03 72 1010.0
20260506103017 17 315 17.7 29.0 0.00 0.03 0.03 72 1010.0
20260506102537 16 315 16.1 29.0 0.00 0.03 0.03 73 1009.9
20260506102017 16 315 19.3 32.2 0.00 0.03 0.03 72 1010.0
20260506101517 17 293 20.9 35.4 0.00 0.03 0.03 71 1009.9
20260506101017 17 293 20.9 32.2 0.00 0.03 0.03 70 1010.2
20260506100516 18 315 19.3 38.6 0.00 0.03 0.03 69 1010.3
20260506100017 18 315 17.7 33.8 0.00 0.03 0.03 69 1010.3
20260506095536 18 315 20.9 30.6 0.00 0.03 0.03 66 1010.0
20260506095017 18 315 19.3 29.0 0.00 0.03 0.03 64 1010.2
20260506094517 19 315 12.9 22.5 0.00 0.03 0.03 63 1010.3
20260506094037 19 315 9.7 22.5 0.00 0.03 0.03 63 1010.3
20260506093517 19 338 1.6 4.8 0.00 0.03 0.03 62 1010.3
20260506093017 19 158 3.2 12.9 0.00 0.03 0.03 63 1010.0
20260506092517 19 135 3.2 12.9 0.00 0.03 0.03 62 1010.2
20260506092017 18 135 1.6 4.8 0.00 0.03 0.03 64 1010.0
20260506091537 18 158 3.2 14.5 0.00 0.03 0.03 62 1009.9
20260506091016 18 315 3.2 8.0 0.00 0.03 0.03 62 1010.0
20260506090536 18 135 1.6 6.4 0.00 0.03 0.03 63 1009.9
20260506090017 17 315 9.7 20.9 0.00 0.03 0.03 55 1009.9
20260506085517 17 315 9.7 19.3 0.00 0.03 0.03 55 1009.9
20260506085017 17 338 12.9 24.1 0.00 0.03 0.03 56 1009.9
20260506084516 17 315 16.1 25.7 0.00 0.03 0.03 56 1009.8
20260506084017 17 338 19.3 29.0 0.00 0.03 0.03 55 1009.8
20260506083517 17 315 19.3 30.6 0.00 0.03 0.03 56 1009.7
20260506083017 17 315 14.5 22.5 0.00 0.03 0.03 60 1009.7
20260506082537 17 315 16.1 25.7 0.00 0.03 0.03 60 1009.7